CW2234 Weather Reports


time (UTC)temp
F
wind
direction
speed
knots
gust
knots
rain 1hr
in
rain 24hr
in
rain mn
in
humidity
%
barometer
mb
20260505083056 59 152 0.0 2.6 0.00 0.00 0.00 85 1014.1
20260505081559 59 147 0.0 1.7 0.00 0.00 0.00 85 1014.2
20260505080056 59 135 0.9 4.3 0.00 0.00 0.00 85 1014.3
20260505074555 59 154 1.7 4.3 0.00 0.00 0.00 84 1014.4
20260505073100 59 162 0.0 4.3 0.00 0.00 0.00 85 1014.5
20260505071554 59 0 0.9 3.5 0.00 0.00 0.00 85 1014.6
20260505070054 59 162 0.0 3.5 0.00 0.00 0.00 84 1014.6
20260505064554 59 0 0.0 3.5 0.00 0.00 0.00 84 1014.6
20260505063059 59 132 0.0 4.3 0.00 0.00 0.00 84 1014.7
20260505061600 59 0 0.9 3.5 0.00 0.00 0.00 84 1014.5
20260505060059 59 0 0.9 3.5 0.00 0.00 0.00 84 1014.6
20260505054554 59 156 0.9 2.6 0.00 0.00 0.00 84 1014.7
20260505053105 59 159 0.9 4.3 0.00 0.00 0.00 85 1014.8
20260505051553 59 0 0.0 2.6 0.00 0.00 0.00 86 1014.8
20260505041557 60 88 0.0 2.6 0.00 0.00 0.00 84 1015.1
20260505040056 60 0 0.0 3.5 0.00 0.00 0.00 84 1015.1
20260505034553 60 0 0.9 3.5 0.00 0.00 0.00 84 1015.0
20260505033110 60 80 0.0 2.6 0.00 0.00 0.00 84 1014.9
20260505031550 60 74 0.9 3.5 0.00 0.00 0.00 84 1014.7
20260505030053 60 0 0.9 5.2 0.00 0.00 0.00 84 1014.7
20260505024555 60 94 1.7 6.1 0.00 0.00 0.00 83 1014.5
20260505023103 61 98 0.9 6.1 0.00 0.00 0.00 81 1014.5
20260505021553 61 0 0.9 5.2 0.00 0.00 0.00 79 1014.6
20260505020055 62 146 0.0 6.1 0.00 0.00 0.00 79 1014.5
20260505014555 62 150 0.9 8.7 0.00 0.00 0.00 78 1014.6
20260505013055 63 0 2.6 7.0 0.00 0.00 0.00 77 1014.6
20260505011558 64 135 2.6 10.4 0.00 0.00 0.00 73 1014.5
20260505010058 64 0 0.9 7.8 0.00 0.00 0.00 70 1014.7
20260505004601 64 134 0.9 5.2 0.00 0.00 0.00 73 1014.7
20260505003057 64 205 0.9 6.1 0.00 0.00 0.00 77 1014.8
20260505001557 64 142 1.7 7.8 0.00 0.00 0.00 75 1015.0
20260505000059 65 125 0.9 9.6 0.00 0.00 0.00 74 1014.9
20260504234617 65 157 0.9 8.7 0.00 0.00 0.00 74 1014.8
20260504233052 65 118 3.5 12.2 0.00 0.00 0.00 73 1014.7
20260504231601 66 180 1.7 8.7 0.00 0.00 0.00 73 1014.6
20260504230053 67 93 2.6 9.6 0.00 0.00 0.00 69 1014.6
20260504224600 66 55 2.6 10.4 0.00 0.00 0.00 70 1014.9
20260504223052 67 309 1.7 8.7 0.00 0.00 0.00 72 1015.0
20260504221602 66 325 2.6 10.4 0.00 0.00 0.00 74 1015.0
20260504220055 66 105 2.6 7.0 0.00 0.00 0.00 72 1015.2
20260504214556 66 94 1.7 13.0 0.00 0.00 0.00 73 1015.5
20260504213103 66 24 2.6 9.6 0.00 0.00 0.00 74 1015.7
20260504211602 66 127 2.6 8.7 0.00 0.00 0.00 72 1015.9
20260504210104 67 127 0.9 5.2 0.00 0.00 0.00 71 1015.8
20260504204636 67 116 1.7 8.7 0.00 0.00 0.00 71 1015.8
20260504203051 67 33 1.7 7.8 0.00 0.00 0.00 70 1015.8
20260504201552 67 138 1.7 7.0 0.00 0.00 0.00 71 1015.7
20260504200057 67 126 2.6 9.6 0.00 0.00 0.00 67 1015.8
20260504194553 67 92 1.7 9.6 0.00 0.00 0.00 67 1015.8
20260504193053 68 57 2.6 10.4 0.00 0.00 0.00 65 1015.8
20260504191552 68 175 1.7 8.7 0.00 0.00 0.00 63 1015.9
20260504190059 67 143 1.7 7.0 0.00 0.00 0.00 64 1015.7
20260504184602 67 118 2.6 9.6 0.00 0.00 0.00 64 1015.9
20260504183059 66 115 1.7 9.6 0.00 0.00 0.00 68 1015.9
20260504181551 66 115 1.7 6.1 0.00 0.00 0.00 66 1016.0
20260504180050 66 113 1.7 7.8 0.00 0.00 0.00 66 1016.0
20260504174553 66 149 0.9 6.1 0.00 0.00 0.00 68 1016.0
20260504173052 65 151 2.6 7.8 0.00 0.00 0.00 69 1015.9
20260504171553 65 132 0.9 7.0 0.00 0.00 0.00 68 1015.8
20260504100103 58 0 0.0 3.5 0.00 0.00 0.00 82 1014.2